| time (UTC) | temp F | wind direction | speed knots | gust knots | rain 1hr in | rain 24hr in | rain mn in | humidity % | barometer mb |
| 20260504081538 | 50 | 282 | 5.2 | 15.6 | 0.00 | 0.06 | 0.06 | 82 | 1006.5 |
| 20260504050011 | 47 | 185 | 1.7 | 3.5 | 0.00 | 0.06 | 0.06 | 92 | 1005.3 |
| 20260504044501 | 46 | 223 | 1.7 | 4.3 | 0.00 | 0.06 | 0.06 | 93 | 1005.5 |
| 20260504043101 | 46 | 214 | 0.0 | 2.6 | 0.00 | 0.06 | 0.06 | 94 | 1005.3 |
| 20260504041557 | 46 | 188 | 0.0 | 1.7 | 0.00 | 0.06 | 0.06 | 93 | 1005.4 |
| 20260504040056 | 46 | 209 | 0.9 | 1.7 | 0.00 | 0.06 | 0.06 | 93 | 1005.5 |
| 20260504034553 | 46 | 226 | 0.0 | 2.6 | 0.00 | 0.06 | 0.06 | 93 | 1005.5 |
| 20260504033050 | 46 | 227 | 0.0 | 3.5 | 0.01 | 0.06 | 0.06 | 93 | 1005.6 |
| 20260504031552 | 46 | 253 | 0.0 | 1.7 | 0.01 | 0.06 | 0.06 | 93 | 1005.8 |
| 20260504030048 | 47 | 165 | 0.9 | 2.6 | 0.01 | 0.06 | 0.06 | 93 | 1005.5 |
| 20260504024549 | 47 | 192 | 0.0 | 0.9 | 0.02 | 0.06 | 0.06 | 93 | 1005.8 |
| 20260504023045 | 47 | 188 | 0.9 | 1.7 | 0.01 | 0.06 | 0.06 | 93 | 1005.8 |
| 20260504021543 | 47 | 208 | 1.7 | 2.6 | 0.01 | 0.06 | 0.06 | 92 | 1006.0 |
| 20260504020117 | 48 | 221 | 1.7 | 4.3 | 0.02 | 0.06 | 0.06 | 93 | 1006.2 |
| 20260504014554 | 48 | 262 | 0.9 | 5.2 | 0.01 | 0.05 | 0.05 | 93 | 1006.3 |
| 20260504013044 | 50 | 224 | 0.9 | 2.6 | 0.02 | 0.05 | 0.05 | 93 | 1006.2 |
| 20260504011535 | 50 | 206 | 0.9 | 3.5 | 0.03 | 0.05 | 0.05 | 93 | 1006.3 |
| 20260504010039 | 50 | 220 | 0.9 | 3.5 | 0.02 | 0.04 | 0.04 | 93 | 1006.3 |
| 20260504004536 | 50 | 208 | 0.9 | 2.6 | 0.03 | 0.04 | 0.04 | 93 | 1006.4 |
| 20260504003031 | 50 | 213 | 0.9 | 3.5 | 0.02 | 0.02 | 0.02 | 93 | 1006.5 |
| 20260504001534 | 51 | 233 | 0.9 | 3.5 | 0.02 | 0.02 | 0.02 | 93 | 1006.5 |
| 20260504000028 | 51 | 196 | 0.9 | 3.5 | 0.02 | 0.02 | 0.02 | 93 | 1006.6 |
| 20260503234527 | 51 | 211 | 1.7 | 3.5 | 0.01 | 0.01 | 0.01 | 93 | 1006.8 |
| 20260503233026 | 51 | 189 | 3.5 | 6.1 | 0.01 | 0.01 | 0.01 | 93 | 1006.9 |
| 20260503231523 | 51 | 211 | 3.5 | 7.8 | 0.00 | 0.00 | 0.00 | 92 | 1007.1 |
| 20260503230022 | 51 | 163 | 6.1 | 8.7 | 0.00 | 0.00 | 0.00 | 92 | 1007.2 |
| 20260503224520 | 51 | 163 | 2.6 | 5.2 | 0.00 | 0.00 | 0.00 | 91 | 1007.3 |
| 20260503223019 | 51 | 210 | 1.7 | 5.2 | 0.00 | 0.00 | 0.00 | 91 | 1007.3 |
| 20260503221518 | 51 | 175 | 0.9 | 4.3 | 0.00 | 0.00 | 0.00 | 91 | 1007.2 |
| 20260503220016 | 51 | 167 | 1.7 | 5.2 | 0.00 | 0.00 | 0.00 | 91 | 1007.2 |
| 20260503214518 | 51 | 204 | 2.6 | 6.1 | 0.00 | 0.00 | 0.00 | 91 | 1007.3 |
| 20260503213014 | 51 | 168 | 2.6 | 5.2 | 0.00 | 0.00 | 0.00 | 91 | 1007.5 |
| 20260503211513 | 51 | 174 | 1.7 | 5.2 | 0.00 | 0.00 | 0.00 | 91 | 1007.7 |
| 20260503210011 | 51 | 171 | 2.6 | 7.0 | 0.00 | 0.00 | 0.00 | 91 | 1007.8 |
| 20260503204509 | 51 | 170 | 0.9 | 6.1 | 0.00 | 0.00 | 0.00 | 90 | 1007.9 |
| 20260503203022 | 51 | 190 | 1.7 | 6.1 | 0.00 | 0.00 | 0.00 | 90 | 1008.1 |
| 20260503201508 | 51 | 157 | 4.3 | 9.6 | 0.00 | 0.00 | 0.00 | 90 | 1008.2 |
| 20260503200008 | 51 | 142 | 4.3 | 8.7 | 0.00 | 0.00 | 0.00 | 89 | 1008.4 |
| 20260503194505 | 51 | 166 | 4.3 | 8.7 | 0.00 | 0.00 | 0.00 | 88 | 1008.4 |
| 20260503193045 | 51 | 171 | 3.5 | 7.0 | 0.00 | 0.00 | 0.00 | 88 | 1008.5 |
| 20260503191548 | 51 | 181 | 2.6 | 6.1 | 0.00 | 0.00 | 0.00 | 88 | 1008.5 |
| 20260503190142 | 51 | 179 | 0.0 | 4.3 | 0.00 | 0.00 | 0.00 | 88 | 1008.4 |
| 20260503184540 | 52 | 184 | 1.7 | 5.2 | 0.00 | 0.00 | 0.00 | 87 | 1008.5 |
| 20260503183039 | 52 | 167 | 2.6 | 7.0 | 0.00 | 0.00 | 0.00 | 86 | 1008.5 |
| 20260503181541 | 53 | 189 | 0.9 | 5.2 | 0.00 | 0.00 | 0.00 | 85 | 1008.5 |
| 20260503180038 | 53 | 157 | 3.5 | 7.0 | 0.00 | 0.00 | 0.00 | 85 | 1008.5 |
| 20260503174537 | 53 | 111 | 3.5 | 7.8 | 0.00 | 0.00 | 0.00 | 83 | 1008.6 |
| 20260503173037 | 53 | 184 | 3.5 | 7.8 | 0.00 | 0.00 | 0.00 | 82 | 1008.6 |
| 20260503171535 | 54 | 157 | 1.7 | 7.8 | 0.00 | 0.00 | 0.00 | 82 | 1008.7 |